OBJECT D

Satellite information

Favourite Embed

Satellite Type and Status

UNKNOWNDECAYED

Key statistics

Satellite OBJECT D at a glance.

Uptime

847

Days in orbit

Revolutions

≈ 16.2

Per day

Orbit

SSO

Sun Synchronous Orbit

Inclination

97.5

Latest

Satellite identification and parameters

Extended collection of information and parameters for OBJECT D.

Object identification

Identified? True

Debris? False

Object name: OBJECT D

International designator: 2023-085D

Object number (NORAD): 57007

Object ID (CCSDS): 57007

Country: PEOPLES REPUBLIC OF CHINA (PRC)

Current information (Y/N): Y

RCS size: MEDIUM

Orbital parameters

Decay date: Oct. 9, 2025

Period: 88.895 minutes

Inclination: 97.4692 deg

SMA: 6597.975 km

Apoapsis: 226.399 km

Periapsis: 213.281 km

RAAN: 43.3399 deg

Eccentricy: 0.00099409

Argument of periapsis: 243.4815 deg

Mean anomaly: 116.5455 deg

Mean motion: 16.1989448 rev/day

Mean motion (dot): 0.03420638 rev/day2

B* drag term: 0.0018202314 1/REarth

Two-line elements (TLE)

Creation date: Oct. 8, 2025, 10:51 a.m.

Reference frame: TEME

Reference center: EARTH

Epoch: Oct. 7, 2025, 1:39 a.m. UTC

TLE line 0: 0 OBJECT D

TLE line 1: 1 57007U 23085D 25280.06916558 .03420638 24805-5 18202-2 0 9999

TLE line 2: 2 57007 97.4692 43.3399 0009941 243.4815 116.5455 16.19894480129200

Live tracking on map

Satellite OBJECT D has decayed and is no longer in orbit. No tracking available.

In-orbit conjunctions

Satellite OBJECT D has decayed and is no longer in orbit. No conjunctions available.

Associated space launch

41 new satellites for the Jilin-1 commercial Earth observation satellites constellation. Satellites list: Jilin-1 GF-03D 19~26 Jilin-1 GF-06A 01~30 Jilin-1 PT-02A 01~02 Khorgas-1 (Jilin-1 IR-A ??)

OBJECT D was lifted into orbit during the mission ‘Long March 2D | 41 x Jilin-1’, on board a Long March 2D space rocket.

The launch took place on June 15, 2023, 5:30 a.m. from Launch Complex 9.

For more information about the launch, click the button.

Launch to space Long March 2D | 41 x Jilin-1
Long March 2D | 41 x Jilin-1

Agency: N/A

Status: Launch Successful

Launch date: June 15, 2023, 5:30 a.m. UTC

Rocket: Long March 2D

Launch pad: Launch Complex 9

Location: Taiyuan Satellite Launch Center, People's Republic of China

...

Latest news about this satellite

There are no fresh news available about this satellite. Check back as we update our databases every day.


Newsletter sign-up

Weekly statistics, charts and insights to help you stay on top of the space industry.